Orbital Elements at Epoch 2459200.5 (2020-Dec-17.0) TDB
Reference: JPL 20 (heliocentric ecliptic J2000)
Element | Value | Uncertainty (1-sigma) | Units |
e | .2670542635499884 | 3.9099e-08 | |
a | 2.191778099820715 | 8.6138e-09 | au |
q | 1.606454413508101 | 8.9091e-08 | au |
i | 5.673541092121195 | 4.7937e-06 | deg |
node | 219.9542972172257 | 4.065e-05 | deg |
peri | 54.40770647113893 | 4.2515e-05 | deg |
M | 248.2584360183839 | 1.6802e-05 | deg |
tp | 2459568.379465211222 (2021-Dec-19.87946521) | 5.6903e-05 | TDB |
period | 1185.204526919176 3.24 | 6.9869e-06 1.913e-08 | d yr |
n | .3037450430060246 | 1.7906e-09 | deg/d |
Q | 2.77710178613333 | 1.0914e-08 | au |
|
| | Orbit Determination Parameters
Additional Information
|